Hereford, TX

9:39 PM CDT on July 21, 2017 (GMT -0500)
Hereford Municipal

Weather History for KHRX - February, 2013

Change the Weather History Date:

Tuesday, February 5, 2013

  Actual Average (KCVN) Record (KCVN)
Temperature  
Mean Temperature 42 °F -  
Max Temperature 60 °F 49 °F 78 °F (1934)
Min Temperature 23 °F 24 °F -1 °F (1982)
Degree Days  
Heating Degree Days 24    
Moisture  
Dew Point 17 °F    
Average Humidity 41    
Maximum Humidity 68    
Minimum Humidity 16    
Precipitation  
Precipitation 0.00 in - - ()
Sea Level Pressure  
Sea Level Pressure 29.97 in    
Wind  
Wind Speed - (North)    
Max Wind Speed -    
Max Gust Speed -    
Visibility 10 miles    
Events      
Averages and records for this station are not official NWS values.
T = Trace of Precipitation, MM = Missing Value Source: NWS Daily Summary

Daily Weather History Graph

Daily Weather History Graph

Search for Another Location

Airport or City:

Trip Planner

Search our weather history database for the weather conditions in past years. The results will help you decide how hot, cold, wet, or windy it might be!

Date:

Astronomy

Feb. 05, 2013 Rise Set
Actual Time 7:44 AM CST 6:22 PM CST
Civil Twilight 7:18 AM CST 6:49 PM CST
Nautical Twilight 6:48 AM CST 7:19 PM CST
Astronomical Twilight 6:18 AM CST 7:48 PM CST
Moon 3:24 AM CST (2/5) 1:46 PM CST (2/5)
Length of Visible Light 11h 30m
Length of Day
10h 38m
Waning Crescent, 26% of the Moon is Illuminated
Feb 5
Waning Crescent
Feb 10
New
Feb 17
First Quarter
Feb 25
Full
Mar 4
Last Quarter

Hourly Weather History & Observations

Time (CST) Temp. Dew Point Humidity Pressure Visibility Wind Dir Wind Speed Gust Speed Precip Events Conditions
12:15 AM 33.8 °F 17.6 °F 52% 29.95 in 10.0 mi North - - N/A   Clear
12:35 AM 33.8 °F 17.6 °F 52% 29.95 in 10.0 mi North - - N/A   Clear
12:55 AM 33.8 °F 17.6 °F 52% 29.95 in 10.0 mi North - - N/A   Clear
1:15 AM 35.6 °F 17.6 °F 48% 29.95 in 10.0 mi North - - N/A   Clear
1:35 AM 33.8 °F 17.6 °F 52% 29.94 in 10.0 mi North - - N/A   Clear
1:55 AM 32.0 °F 17.6 °F 55% 29.95 in 10.0 mi North - - N/A   Clear
2:15 AM 28.4 °F 17.6 °F 64% 29.95 in 10.0 mi North - - N/A   Clear
2:35 AM 32.0 °F 17.6 °F 55% 29.94 in 10.0 mi North - - N/A   Clear
2:55 AM 28.4 °F 17.6 °F 64% 29.94 in 10.0 mi North - - N/A   Clear
3:15 AM 30.2 °F 17.6 °F 60% 29.93 in 10.0 mi North - - N/A   Clear
3:35 AM 23.0 °F 14.0 °F 68% 29.94 in 10.0 mi North - - N/A   Clear
3:55 AM 28.4 °F 15.8 °F 59% 29.94 in 10.0 mi North - - N/A   Clear
4:15 AM 30.2 °F 17.6 °F 60% 29.93 in 10.0 mi North - - N/A   Clear
4:35 AM 32.0 °F 17.6 °F 55% 29.93 in 10.0 mi North - - N/A   Clear
4:55 AM 32.0 °F 17.6 °F 55% 29.91 in 10.0 mi North - - N/A   Clear
5:15 AM 35.6 °F 17.6 °F 48% 29.93 in 10.0 mi North - - N/A   Clear
5:35 AM 35.6 °F 17.6 °F 48% 29.93 in 10.0 mi North - - N/A   Clear
6:15 AM 32.0 °F 15.8 °F 51% 29.93 in 10.0 mi North - - N/A   Clear
6:35 AM 32.0 °F 15.8 °F 51% 29.93 in 10.0 mi North - - N/A   Clear
6:55 AM 32.0 °F 15.8 °F 51% 29.93 in 10.0 mi North - - N/A   Clear
7:15 AM 30.2 °F 15.8 °F 55% 29.93 in 10.0 mi North - - N/A   Clear
7:35 AM 26.6 °F 14.0 °F 59% 29.94 in 10.0 mi North - - N/A   Clear
8:15 AM 28.4 °F 15.8 °F 59% 29.97 in 10.0 mi North - - N/A   Clear
8:35 AM 30.2 °F 15.8 °F 55% 29.98 in 10.0 mi North - - N/A   Clear
8:55 AM 33.8 °F 17.6 °F 52% 29.98 in 10.0 mi North - - N/A   Clear
9:15 AM 35.6 °F 19.4 °F 52% 29.99 in 10.0 mi North - - N/A   Clear
9:35 AM 41.0 °F 17.6 °F 39% 29.99 in 10.0 mi North - - N/A   Clear
9:55 AM 46.4 °F 17.6 °F 32% 29.99 in 10.0 mi North - - N/A   Clear
10:15 AM 46.4 °F 17.6 °F 32% 29.99 in 10.0 mi North - - N/A   Clear
10:35 AM 50.0 °F 19.4 °F 30% 30.00 in 10.0 mi North - - N/A   Clear
10:55 AM 51.8 °F 19.4 °F 28% 30.01 in 10.0 mi North - - N/A   Clear
11:15 AM 51.8 °F 19.4 °F 28% 30.01 in 10.0 mi North - - N/A   Clear
11:35 AM 53.6 °F 19.4 °F 26% 30.00 in 10.0 mi North - - N/A   Clear
11:55 AM 55.4 °F 19.4 °F 25% 30.01 in 10.0 mi North - - N/A   Clear
12:15 PM 55.4 °F 19.4 °F 25% 30.01 in 10.0 mi North - - N/A   Clear
12:35 PM 55.4 °F 17.6 °F 23% 30.00 in 10.0 mi North - - N/A   Clear
12:55 PM 57.2 °F 17.6 °F 21% 30.00 in 10.0 mi North - - N/A   Clear
1:15 PM 59.0 °F 17.6 °F 20% 29.99 in 10.0 mi North - - N/A   Clear
1:35 PM 59.0 °F 15.8 °F 19% 29.98 in 10.0 mi North - - N/A   Clear
1:55 PM 60.8 °F 17.6 °F 19% 29.98 in 10.0 mi North - - N/A   Clear
2:15 PM 60.8 °F 17.6 °F 19% 29.98 in 10.0 mi North - - N/A   Clear
2:35 PM 60.8 °F 15.8 °F 17% 29.97 in 10.0 mi North - - N/A   Clear
2:55 PM 60.8 °F 14.0 °F 16% 29.96 in 10.0 mi North - - N/A   Clear
3:15 PM 60.8 °F 15.8 °F 17% 29.96 in 10.0 mi North - - N/A   Clear
3:35 PM 60.8 °F 14.0 °F 16% 29.96 in 10.0 mi North - - N/A   Clear
3:55 PM 60.8 °F 15.8 °F 17% 29.96 in 10.0 mi North - - N/A   Clear
4:15 PM 60.8 °F 17.6 °F 19% 29.96 in 10.0 mi North - - N/A   Clear
4:35 PM 60.8 °F 17.6 °F 19% 29.96 in 10.0 mi North - - N/A   Clear
4:55 PM 59.0 °F 17.6 °F 20% 29.96 in 10.0 mi North - - N/A   Clear
5:15 PM 59.0 °F 17.6 °F 20% 29.96 in 10.0 mi North - - N/A   Clear
5:35 PM 57.2 °F 17.6 °F 21% 29.97 in 10.0 mi North - - N/A   Clear
5:55 PM 55.4 °F 19.4 °F 25% 29.97 in 10.0 mi North - - N/A   Clear
6:15 PM 51.8 °F 17.6 °F 26% 29.97 in 10.0 mi North - - N/A   Clear
6:35 PM 50.0 °F 17.6 °F 28% 29.97 in 10.0 mi North - - N/A   Clear
6:55 PM 46.4 °F 19.4 °F 34% 29.98 in 10.0 mi North - - N/A   Clear
7:15 PM 46.4 °F 17.6 °F 32% 29.99 in 10.0 mi North - - N/A   Clear
7:35 PM 42.8 °F 17.6 °F 36% 29.99 in 10.0 mi North - - N/A   Clear
7:55 PM 42.8 °F 19.4 °F 39% 30.00 in 10.0 mi North - - N/A   Clear
8:15 PM 33.8 °F 17.6 °F 52% 30.00 in 10.0 mi North - - N/A   Clear
8:35 PM 35.6 °F 17.6 °F 48% 30.01 in 10.0 mi North - - N/A   Clear
9:15 PM 33.8 °F 15.8 °F 48% 30.01 in 10.0 mi North - - N/A   Clear
9:35 PM 32.0 °F 15.8 °F 51% 30.02 in 10.0 mi North - - N/A   Clear
9:55 PM 32.0 °F 15.8 °F 51% 30.02 in 10.0 mi North - - N/A   Clear
10:15 PM 32.0 °F 17.6 °F 55% 30.02 in 10.0 mi North - - N/A   Clear
10:35 PM 30.2 °F 15.8 °F 55% 30.02 in 10.0 mi North - - N/A   Clear
10:55 PM 32.0 °F 17.6 °F 55% 30.02 in 10.0 mi North - - N/A   Clear
11:15 PM 32.0 °F 17.6 °F 55% 30.02 in 10.0 mi North - - N/A   Clear
11:35 PM 32.0 °F 17.6 °F 55% 30.01 in 10.0 mi North - - N/A   Clear
11:55 PM 33.8 °F 17.6 °F 52% 30.01 in 10.0 mi North - - N/A   Clear